Regional Weather Roundup
Issued by NWS Wakefield, VA

Home | Current Version | Previous Version | Text Only | Print | Product List | Glossary Off
Versions: 1 2 3 4 5 6 7 8 9 10 11 12 13 14 15 16 17 18 19 20 21 22 23 24 25 26 27

000
ASUS41 KAKQ 171815
RWRAKQ

REGIONAL WEATHER ROUNDUP
NATIONAL WEATHER SERVICE WAKEFIELD VA
100 PM EST SUN DEC 17 2017

Note: "fair" indicates few or no clouds below 12,000 feet with no
significant weather and/or obstructions to visibility. * = Denotes
station may not report precipitation (e.g., rain,snow,etc.),
thunder or fog.

VAZ042-051-052>054-056-171900-
NORTHERN VIRGINIA

CITY           SKY/WX    TMP DP  RH WIND       PRES   REMARKS
WASH NATIONAL  CLOUDY    49  31  49 S7        30.23F
DULLES         CLOUDY    48  30  49 CALM      30.21F
FORT BELVOIR   CLOUDY    45  27  49 CALM      30.22F
QUANTICO       CLOUDY    43  33  68 CALM      30.23F
FREDERICKSBRG* MOSUNNY   47  31  53 CALM      30.21F
STAFFORD*      CLOUDY    49  29  46 E3        30.25F
WARRENTON      CLOUDY    49  25  38 CALM      30.20F
CULPEPER*      MOSUNNY   47  27  45 CALM      30.21F
MANASSAS*      CLOUDY    45  29  53 CALM      30.21F
LEESBURG*      CLOUDY    50  32  50 S3        30.21F
WINCHESTER     MOSUNNY   45  28  53 SW3       30.18F
FRONT ROYAL*   CLOUDY    46  28  49 MISG      30.17F
LURAY*         CLOUDY    43  32  65 S3        30.17F
$$

VAZ048-049-060>072-079>083-171900-
CENTRAL AND SOUTH CENTRAL VIRGINIA

CITY           SKY/WX    TMP DP  RH WIND       PRES   REMARKS
RICHMOND       PTSUNNY   54  28  36 VRB6      30.22F
CHESTERFIELD*  NOT AVBL
PETERSBURG*    MOSUNNY   48  25  40 CALM      30.23F
HANOVER        MOSUNNY   51  28  41 S6        30.23F
TAPPAHANNOCK*  MOSUNNY   52  30  43 CALM      30.22F
QUINTON*       FAIR      50  29  44 SE5       30.22F
CHARLOTTSVILLE MOSUNNY   51  26  37 S3        30.19F
GORDONSVILLE*  PTCLDY    50  31  49 CALM      30.18F
ORANGE*        PTSUNNY   50  32  50 CALM      30.20F
LOUISA*        MOSUNNY   49  29  44 S3        30.24F
BUMPASS*       FAIR      49  27  43 SW5       30.21F
FARMVILLE*     CLOUDY    46  31  56 CALM      30.18F
CREWE*         FAIR      45  28  52 CALM      30.21F
FORT PICKETT*  NOT AVBL
CHASE CITY*    MOCLDY    43  29  56 CALM      30.20F
CLARKSVILLE*   FAIR      45  30  57 CALM      30.20F
SOUTH HILL*    MOSUNNY   43  33  66 CALM      30.27F
LAWRENCEVILLE* FAIR      44  30  58 CALM      30.21F
EMPORIA*       CLOUDY    45  30  57 CALM      30.23F
$$

VAZ088>098-171900-
SOUTHEAST VIRGINIA

CITY           SKY/WX    TMP DP  RH WIND       PRES   REMARKS
NORFOLK        MOSUNNY   50  35  56 N7        30.23F
VIRGINIA BEACH PTSUNNY   53  26  35 S5        30.23F
NORFOLK NAVAL  PTSUNNY   52  28  39 N7        30.24F
WEST POINT*    SUNNY    N/A N/A N/A S6        30.24F
SALUDA*        FAIR      49  34  57 E6        30.22F
NEWPORT NEWS   SUNNY     52  29  41 VRB6      30.22F
LANGLEY AFB    MOSUNNY   53  29  40 S6        30.22F
FORT EUSTIS    PTSUNNY   50  29  44 S6        30.20F
WILLIAMSBURG*  SUNNY     54  32  43 CALM      30.23F
HR EXEC AP*    FAIR      54  29  38 S7        30.24F
FRANKLIN*      MOSUNNY   49  29  46 SW3       30.24F
US460-WAKEFLD  SUNNY     52  28  39 VRB5      30.23F
$$

VAZ020-022-025-037-045-171900-
WEST CENTRAL AND SOUTHWEST VIRGINIA

CITY           SKY/WX    TMP DP  RH WIND       PRES   REMARKS
STAUNTON*      CLOUDY    44  29  56 CALM      30.20F
WAYNESBORO*    CLOUDY    45  28  52 CALM      30.19F
HOT SPRINGS VA CLOUDY    44   4  19 SW7       30.13F
LYNCHBURG      CLOUDY    44  28  53 CALM      30.18F
DANVILLE       CLOUDY    43  30  60 CALM      30.21F
SOUTH BOSTON*  MOCLDY    42  28  57 CALM      30.20F
MARTINSVILLE   CLOUDY    40  30  67 CALM      30.24S
ROANOKE        CLOUDY    46  28  49 W3        30.21F
BLACKSBURG     CLOUDY    40  28  63 CALM      30.22S
DUBLIN*        MIX PCPN  40  32  73 CALM      30.20F
MARION*        CLOUDY    43  29  58 E3        30.19F
HILLSVILLE*    CLOUDY    40  24  53 CALM      30.16F
RICHLANDS*     CLOUDY    38  29  69 CALM      30.14F
WISE*          CLOUDY    41  32  70 SE3       30.14F
ABINGDON*      CLOUDY    43  31  63 SE5       30.16F
$$

MDZ021>025-VAZ099-100-171900-
SOUTHERN MARYLAND AND THE DELMARVA PENINSULA

CITY           SKY/WX    TMP DP  RH WIND       PRES   REMARKS
PATUXENT RIVER CLOUDY    47  36  65 E7        30.23F
BAY BRIDGE APT PTSUNNY   45  32  61 CALM      30.23F
LEONARDTOWN    CLOUDY    48  30  49 SE3       30.24F
DOVER          CLOUDY    46  37  71 E6        30.22F
GEORGETOWN     MOSUNNY   49  32  52 SW6       30.24F
EASTON         MOSUNNY   50  32  50 W7        30.26F
CAMBRIDGE      SUNNY     48  34  57 CALM      30.24F
SALISBURY      MOSUNNY   50  32  50 CALM      30.23F
OCEAN CITY     MOSUNNY   50  35  56 SW7       30.24F
WALLOPS ISLAND PTSUNNY   50  36  58 S10       30.25F
ACCOMACK*      CLOUDY    53  35  50 SE8       30.23F
$$

NCZ012>017-030>032-171900-
NORTH CENTRAL AND EASTERN NORTH CAROLINA

CITY           SKY/WX    TMP DP  RH WIND       PRES   REMARKS
ROANOKE RAPIDS FAIR      46  32  57 S3        30.24F
RALEIGH        CLOUDY    51  29  42 SW6       30.21F
ELIZABETH CITY CLOUDY    51  37  58 SW8       30.26F
AHOSKIE*       CLOUDY    47  32  55 S3        30.25F
EDENTON*       CLOUDY    52  33  48 W6        30.28R
CURRITUCK*     CLOUDY    51  31  47 CALM      30.25F
KILL DEVIL HLS CLOUDY    49  30  47 CALM      30.23F
MANTEO         CLOUDY    49  31  48 S5        30.25F
CAPE HATTERAS  MOSUNNY   51  36  56 NW6       30.25F
TARBORO*       NOT AVBL
GOLDSBORO      CLOUDY    55  29  38 SW7       30.22F
WASHINGTON     CLOUDY    54  30  40 W6        30.27F
GREENVILLE     CLOUDY    52  32  46 SW6       30.26F
NEW BERN       CLOUDY    53  31  42 SW6       30.28F
WILMINGTON     SUNNY     60  38  43 W3        30.24F
$$

VAZ048-171900-
ELSEWHERE

CITY           SKY/WX    TMP DP  RH WIND       PRES   REMARKS
HARRISBURG PA  CLOUDY    36  29  75 CALM      30.22F
BALTIMORE      CLOUDY    48  31  51 E6        30.21F
ANNAPOLIS      PTSUNNY   43  36  76 SE8       30.22F
ANDREWS AFB    MOSUNNY   51  28  40 S6        30.21F
PHILADELPHIA   CLOUDY    42  28  57 CALM      30.24F
HENDERSON NC   CLOUDY    46  28  48 CALM      30.22F
GREENSBORO     CLOUDY    49  30  48 SW6       30.20F
ROCKY MOUNT    MOSUNNY   51  31  46 SW7       30.24F
$$

VAZ100-171900-
MARINE

STATION/POSITION TIME  TEMP    WIND        PRES    WAVE   SWELL
                       AIR SEA DIR/SP/G            HT/PER HT/PER
                 (UTC) (F)     (DEG/KT/KT) (MB)    (FT/S) (FT/S)
BRANDYWINE LGT   1742   42      20/  5/  5 1024.2F
CAPE MAY NJ      1742   42 41  350/  5/  6 1023.5F
LEWES DE         1748   43 42   60/  4/  4 1023.6F
15NM E FENWICK I 1750   47 51  250/  6/  8 1024.7F   2/ 5   2/ 5
OCEAN-CITY-INLET 1742   47 45  260/  6/  7 1024.6F
WACHAPREAGUE VA  1748   48 40  200/  7/  8 1023.9F
THOMAS POINT MD  1800   42 43  150/  5/  5   N/A
GOOSES REEF MD   1800   43 43  120/  4/  4 1024.1    0
COVE POINT MD    1748   43     160/  3/  4 1024.4F
SOLOMONS ISLAND  1742   47 45   CALM  /  1 1023.6F
BISHOPS HEAD MD  1748   42 37  220/  2/  2 1024.4F
PINEY POINT MD   1736           10/  2/  2   N/A
POTOMAC MD       1800   43 44   80/  2/  2 1023.2    0
CAMBRIDGE MD     1748   45 40              1024.4F
LEWISETTA VA     1748   43 42   50/  3/  4 1023.7F
RAPPAHANNOCK LGT 1736          200/  8/  9 1024.6F
STINGRAY PT      1800   45 45  180/  8/ 10 1023.7    1
YORK RVR RNG VA  1748   44     100/  5/  5 1024.0F
YORKTOWN VA      1736   46 45  360/  3/  3 1023.6F
JAMESTOWN VA     1800      44  210/  2/  4   N/A     0
DOMINION TERM VA 1736   45     330/  2/  2 1024.1F
KIPTOPEKE VA     1736      44   CALM  /  1   N/A
CAPE HENRY VA    1736   45      20/  5/  5   N/A
WILLOUBY STN VA  1736          280/  4/  5 1023.7F
S CRANEY ISL VA  1736   48     210/  3/  3 1023.8F
CAPE HENRY BUOY  1800      51                N/A     1/11
1ST LANDING BUOY 1800   45 46   40/  2/  4 1023.9    0
CAPE CHARLES BUO 1751      49                N/A     1/10
64NM E OF VA BCH 1750   52 60  220/  8/ 10 1024.6F   2/ 8   2/ 8
DUCK PIER NC     1736   48 52  220/  6/  8 1023.6F
44100 DUCK FRF   1745      54                N/A     1/10
44056 DUCK FRF   1800      54                N/A     1/11
OREGON INLET NC  1736   45 44  180/  6/  7 1024.3F
HATTERAS NC      1736   48 53  300/  5/  6 1024.1F
DIAMOND SHLS NC  1800   57 72  230/  8/ 12 1024.4
CAPE LOOKOUT NC  1800          240/  3/  4 1025.3F
$$




USA.gov is the U.S. government's official web portal to all federal, state and local government web resources and services.